Location: Vassar Physics Lab
(41.6843°N, 73.8954°W)
Time: 17:44:40
(UTC-04:00)

CZ-4B DEB - Visible Passes

Search period start: 23 April 2017 00:00
Search period end: 03 May 2017 00:00
Orbit: 842 x 862 km, 99.0° (Epoch: 22 April)

Date Brightness Start Highest point End Pass type
(mag) Time Alt. Az. Time Alt. Az. Time Alt. Az.
23 Apr 6.8 03:30:01 10° ENE 03:32:33 13° E 03:35:05 10° ESE visible
23 Apr 4.2 05:08:21 10° NNE 05:13:52 80° WNW 05:19:20 10° SSW visible
24 Apr 4.3 04:56:52 10° NNE 05:02:25 82° ESE 05:07:53 10° SSW visible
25 Apr 4.6 04:45:27 10° NNE 04:50:56 66° ESE 04:56:22 10° S visible
26 Apr 5.0 04:34:04 10° NNE 04:39:26 52° E 04:44:45 10° S visible
27 Apr 5.4 04:22:44 10° NNE 04:27:55 41° E 04:33:02 10° SSE visible
28 Apr 5.8 04:11:29 10° NNE 04:16:23 32° E 04:21:14 10° SSE visible
29 Apr 6.1 04:00:18 10° NE 04:04:49 26° E 04:09:18 10° SSE visible
30 Apr 6.5 03:49:14 10° NE 03:53:15 20° E 03:57:13 10° SE visible
01 May 6.7 03:38:22 10° NE 03:41:39 16° E 03:44:54 10° SE visible
01 May 4.3 05:17:22 10° N 05:22:50 68° WNW 05:28:14 10° SSW visible
02 May 6.8 03:27:52 10° ENE 03:30:01 12° E 03:32:10 10° ESE visible
02 May 4.2 05:05:52 10° NNE 05:11:23 84° WNW 05:16:51 10° SSW visible
